FW5486 Weather Reports


Display with metric or nautical units.
time (UTC)temp
F
wind
direction
speed
MPH
gust
MPH
rain 1hr
in
rain 24hr
in
rain mn
in
humidity
%
barometer
mb
20260906232517 92 355 0.0 1.0 0.00 0.08 0.01 64 1011.8
20260906232248 92 355 0.0 1.0 0.00 0.09 0.01 64 1011.9
20260906231513 93 355 0.0 1.0 0.00 0.10 0.01 62 1011.8
20260906231011 93 355 0.0 1.0 0.00 0.14 0.01 60 1011.9
20260906230509 94 286 0.0 2.0 0.00 0.19 0.01 62 1011.9
20260906230242 94 181 0.0 2.0 0.00 0.25 0.01 62 1011.9
20260906225508 94 181 1.0 3.0 0.00 0.41 0.01 62 1012.0
20260906225008 94 157 1.0 3.0 0.00 0.46 0.01 58 1012.0
20260906224502 94 247 0.0 2.0 0.00 0.47 0.01 59 1012.1
20260906223959 94 246 1.0 4.0 0.00 0.47 0.01 59 1012.1
20260906223458 94 260 0.0 4.0 0.00 0.47 0.01 61 1012.1
20260906222957 94 249 0.0 4.0 0.00 0.47 0.01 60 1012.2
20260906222457 93 282 1.0 4.0 0.00 0.47 0.01 60 1012.0
20260906222225 93 276 0.0 2.0 0.00 0.47 0.01 60 1012.1
20260906221453 93 299 0.0 3.0 0.00 0.47 0.01 63 1012.0
20260906220952 93 262 1.0 4.0 0.00 0.47 0.01 63 1012.1
20260906220452 93 261 1.0 4.0 0.00 0.47 0.01 62 1012.1
20260906220221 93 293 1.0 5.0 0.00 0.47 0.01 60 1012.1
20260906215452 93 273 1.0 5.0 0.00 0.47 0.01 60 1012.1
20260906214948 93 266 1.0 4.0 0.00 0.47 0.01 64 1012.1
20260906214446 92 281 0.0 2.0 0.00 0.47 0.01 61 1012.1
20260906214215 92 333 0.0 2.0 0.00 0.47 0.01 65 1012.1
20260906213442 91 333 0.0 2.0 0.00 0.47 0.01 65 1012.1
20260906212944 91 20 1.0 2.0 0.00 0.47 0.01 65 1012.2
20260906212701 90 36 1.0 2.0 0.00 0.47 0.01 66 1012.2
20260906211922 89 63 0.0 2.0 0.00 0.47 0.01 68 1012.3
20260906211424 89 66 0.0 0.0 0.00 0.47 0.01 69 1012.4
20260906210924 89 66 0.0 0.0 0.00 0.47 0.01 69 1012.4
20260906210421 89 66 0.0 2.0 0.00 0.47 0.01 68 1012.6
20260906205921 89 66 0.0 2.0 0.00 0.47 0.01 66 1012.6
20260906205422 89 66 0.0 1.0 0.00 0.47 0.01 67 1012.7
20260906205148 90 69 0.0 0.0 0.00 0.47 0.01 67 1012.7
20260906204648 90 69 0.0 2.0 0.00 0.47 0.01 65 1012.7
20260906204148 90 65 0.0 2.0 0.00 0.47 0.01 65 1012.8
20260906203648 90 65 1.0 3.0 0.00 0.47 0.01 63 1012.8
20260906202917 90 79 1.0 4.0 0.00 0.47 0.01 64 1013.1
20260906202419 90 164 1.0 4.0 0.00 0.47 0.01 65 1013.3
20260906201913 90 164 2.0 4.0 0.00 0.47 0.01 69 1013.2
20260906201413 89 138 2.0 4.0 0.00 0.47 0.01 67 1013.9
20260906200914 89 121 2.0 4.0 0.00 0.47 0.01 67 1013.3
20260906200414 89 82 0.0 3.0 0.00 0.47 0.01 69 1013.4
20260906195913 89 15 0.0 1.0 0.00 0.47 0.01 70 1013.4
20260906195414 90 15 0.0 2.0 0.00 0.47 0.01 68 1013.5
20260906194911 90 15 1.0 4.0 0.00 0.47 0.01 68 1013.5
20260906194410 90 17 2.0 8.0 0.00 0.47 0.01 68 1013.6
20260906193908 91 0 2.0 8.0 0.00 0.47 0.01 66 1013.7
20260906193405 91 49 2.0 4.0 0.00 0.47 0.01 62 1013.8
20260906193139 92 170 1.0 3.0 0.00 0.47 0.01 64 1013.7
20260906192404 91 257 1.0 2.0 0.00 0.47 0.01 64 1013.8
20260906191905 91 252 1.0 3.0 0.00 0.47 0.01 65 1014.0
20260906191629 91 265 0.0 3.0 0.00 0.47 0.01 68 1014.1
20260906190856 91 256 0.0 2.0 0.00 0.47 0.01 67 1014.2
20260906190400 90 244 0.0 2.0 0.00 0.47 0.01 70 1014.2
20260906190355 90 245 0.0 2.0 0.00 0.47 0.01 66 1014.0
20260906185354 89 355 1.0 7.0 0.00 0.47 0.01 70 1014.2
20260906185125 89 50 2.0 7.0 0.00 0.47 0.01 68 1014.4
20260906184347 89 324 1.0 3.0 0.00 0.47 0.01 68 1014.5
20260906183848 89 269 0.0 2.0 0.00 0.47 0.01 72 1014.5
20260906183352 89 0 1.0 4.0 0.00 0.47 0.01 70 1014.5
20260906183346 89 261 1.0 3.0 0.00 0.47 0.01 71 1014.5
20260906182346 89 61 1.0 4.0 0.00 0.47 0.01 69 1014.6
20260906181845 89 70 0.0 4.0 0.00 0.47 0.01 70 1014.5
20260906181338 88 302 0.0 2.0 0.00 0.47 0.01 71 1014.6
20260906180845 88 355 1.0 3.0 0.00 0.47 0.01 72 1014.6
20260906180840 88 350 1.0 3.0 0.00 0.47 0.01 74 1014.7
20260906175840 88 28 1.0 6.0 0.00 0.47 0.01 70 1014.6
20260906175340 88 63 1.0 6.0 0.00 0.47 0.01 69 1014.7
20260906174839 88 217 1.0 3.0 0.00 0.47 0.01 72 1014.8
20260906174336 87 58 1.0 3.0 0.00 0.47 0.01 72 1014.9
20260906173834 87 40 1.0 3.0 0.00 0.47 0.01 71 1015.0
20260906173336 87 323 2.0 4.0 0.00 0.47 0.01 73 1015.2
20260906172836 87 14 1.0 4.0 0.00 0.47 0.01 73 1015.1
20260906172334 87 355 2.0 4.0 0.00 0.48 0.01 72 1015.2
20260906171835 87 44 2.0 4.0 0.00 0.48 0.01 73 1015.1
20260906171328 87 5 1.0 4.0 0.00 0.48 0.01 77 1015.2
20260906170830 87 115 2.0 3.0 0.00 0.48 0.01 74 1015.3
20260906170340 86 105 1.0 4.0 0.00 0.48 0.01 75 1015.3
20260906165828 87 355 0.0 4.0 0.00 0.48 0.01 75 1015.5
20260906165328 86 271 0.0 3.0 0.00 0.48 0.01 75 1015.7
20260906164828 86 270 0.0 3.0 0.00 0.48 0.01 76 1015.7
20260906164320 86 283 1.0 3.0 0.00 0.48 0.01 79 1015.7
20260906163820 85 57 2.0 4.0 0.00 0.48 0.01 77 1015.7
20260906163318 85 297 1.0 4.0 0.00 0.48 0.01 77 1015.8
20260906162816 85 331 1.0 4.0 0.00 0.48 0.01 78 1015.8
20260906162315 84 269 1.0 4.0 0.00 0.48 0.01 81 1015.8
20260906161813 84 276 2.0 4.0 0.00 0.48 0.01 80 1015.9
20260906161313 83 11 1.0 4.0 0.00 0.48 0.01 80 1015.9
20260906160814 83 82 1.0 3.0 0.00 0.48 0.01 82 1016.0
20260906160312 83 313 2.0 4.0 0.00 0.48 0.01 81 1016.0
20260906155810 82 75 1.0 4.0 0.00 0.48 0.01 82 1015.9
20260906155310 83 50 1.0 3.0 0.00 0.48 0.01 81 1015.9
20260906154807 82 14 2.0 4.0 0.00 0.48 0.01 82 1015.8
20260906154307 82 17 2.0 4.0 0.00 0.48 0.01 84 1015.8
20260906153808 82 51 2.0 5.0 0.00 0.48 0.01 84 1015.8
20260906153305 81 62 2.0 5.0 0.00 0.48 0.01 84 1015.9
20260906153035 81 20 1.0 4.0 0.00 0.48 0.01 85 1015.9
20260906152307 81 52 2.0 4.0 0.00 0.48 0.01 84 1015.8
20260906151757 81 14 2.0 4.0 0.00 0.48 0.01 85 1015.8
20260906151254 81 30 2.0 4.0 0.00 0.48 0.01 86 1015.9
20260906150755 80 44 2.0 4.0 0.00 0.48 0.01 86 1015.8
20260906150254 80 0 2.0 4.0 0.00 0.48 0.01 87 1015.9
20260906145755 80 15 1.0 4.0 0.00 0.48 0.01 86 1015.8
20260906145257 80 344 1.0 2.0 0.00 0.48 0.01 87 1015.8
20260906144748 80 21 0.0 2.0 0.00 0.48 0.01 88 1015.8
20260906144247 79 15 0.0 2.0 0.00 0.48 0.01 90 1015.8
20260906144020 79 15 0.0 2.0 0.00 0.48 0.01 90 1015.8
20260906143244 79 19 1.0 3.0 0.00 0.48 0.01 93 1015.9
20260906142744 78 21 1.0 3.0 0.00 0.48 0.01 92 1015.9
20260906142238 78 0 0.0 2.0 0.00 0.48 0.01 94 1015.6
20260906141735 78 329 0.0 2.0 0.00 0.48 0.01 94 1015.6
20260906141234 77 335 1.0 2.0 0.00 0.48 0.01 95 1015.5
20260906140732 77 320 1.0 2.0 0.00 0.48 0.01 95 1015.5
20260906140233 77 60 0.0 2.0 0.00 0.48 0.01 95 1015.4
20260906135729 77 355 0.0 2.0 0.00 0.48 0.01 96 1015.5
20260906135226 77 355 0.0 2.0 0.00 0.48 0.01 96 1015.6
20260906134728 76 279 0.0 2.0 0.00 0.48 0.01 96 1015.5
20260906134228 76 355 0.0 2.0 0.00 0.48 0.01 95 1015.5
20260906133727 76 12 0.0 2.0 0.00 0.48 0.01 96 1015.5
20260906133226 76 15 0.0 2.0 0.00 0.48 0.01 96 1015.5
20260906132724 76 15 0.0 2.0 0.00 0.48 0.01 96 1015.5
20260906132224 76 20 0.0 2.0 0.00 0.48 0.01 96 1015.5
20260906131725 75 20 1.0 2.0 0.00 0.48 0.01 96 1015.4
20260906131220 75 20 1.0 3.0 0.00 0.48 0.01 96 1015.3
20260906130721 75 19 0.0 3.0 0.00 0.48 0.01 96 1015.4
20260906130221 75 351 1.0 3.0 0.00 0.48 0.01 95 1015.4
20260906125951 75 52 1.0 3.0 0.00 0.48 0.01 95 1015.4
20260906125223 74 45 1.0 3.0 0.00 0.48 0.01 95 1015.3
20260906124723 74 5 0.0 2.0 0.00 0.48 0.01 95 1015.3
20260906124217 75 0 0.0 2.0 0.00 0.48 0.01 96 1015.3
20260906123716 74 0 0.0 2.0 0.00 0.48 0.01 96 1015.2
20260906123216 74 49 0.0 0.0 0.00 0.48 0.01 96 1015.1
20260906122716 74 49 0.0 0.0 0.00 0.48 0.01 95 1015.1
20260906122217 74 49 0.0 2.0 0.00 0.48 0.01 95 1015.1
20260906121717 74 49 0.0 2.0 0.00 0.48 0.01 95 1014.8
20260906121217 74 22 0.0 2.0 0.00 0.48 0.01 95 1014.9
20260906120716 74 34 0.0 2.0 0.00 0.48 0.01 95 1014.8
20260906120216 74 25 0.0 2.0 0.00 0.48 0.01 95 1014.8
20260906115717 74 25 0.0 2.0 0.00 0.48 0.01 95 1014.7
20260906115217 74 5 0.0 2.0 0.00 0.48 0.01 95 1014.6
20260906114946 74 5 0.0 2.0 0.00 0.48 0.01 95 1014.6
20260906114216 74 5 0.0 0.0 0.00 0.48 0.01 95 1014.5
20260906113709 74 5 0.0 0.0 0.00 0.48 0.01 95 1014.4
20260906113207 74 5 0.0 0.0 0.00 0.48 0.01 95 1014.4
20260906112704 74 5 0.0 0.0 0.00 0.48 0.01 95 1014.4
20260906112434 74 5 0.0 0.0 0.00 0.48 0.01 95 1014.4
20260906111704 74 5 0.0 0.0 0.00 0.48 0.01 95 1014.2
20260906111430 74 5 0.0 0.0 0.00 0.48 0.01 95 1014.1
20260906110659 74 5 0.0 2.0 0.00 0.48 0.01 95 1014.1
20260906110158 74 5 0.0 2.0 0.00 0.48 0.01 95 1014.1
20260906105659 74 5 0.0 2.0 0.00 0.48 0.01 95 1014.0
20260906105157 74 5 0.0 2.0 0.00 0.48 0.01 95 1013.9
20260906104657 74 127 0.0 0.0 0.00 0.48 0.01 95 1013.9
20260906104149 75 162 0.0 0.0 0.00 0.48 0.01 95 1014.0
20260906103649 75 167 0.0 0.0 0.00 0.48 0.01 95 1014.0
20260906103419 75 167 0.0 0.0 0.00 0.48 0.01 95 1013.9
20260906102916 74 167 0.0 0.0 0.00 0.48 0.01 95 1014.0
20260906102145 75 167 0.0 0.0 0.00 0.48 0.01 95 1014.0
20260906101910 75 167 0.0 0.0 0.00 0.48 0.01 95 1013.9
20260906101409 75 167 0.0 0.0 0.00 0.48 0.01 95 1014.0
20260906100639 75 167 0.0 0.0 0.00 0.48 0.01 95 1013.9
20260906100138 75 167 0.0 0.0 0.00 0.48 0.01 95 1013.9
20260906095639 75 167 0.0 0.0 0.00 0.48 0.01 95 1013.9
20260906095138 75 167 0.0 0.0 0.00 0.48 0.01 95 1013.9
20260906094635 75 167 0.0 0.0 0.00 0.48 0.01 95 1013.9
20260906094135 75 167 0.0 0.0 0.00 0.48 0.01 95 1013.9
20260906093635 75 167 0.0 0.0 0.00 0.48 0.01 95 1013.8
20260906093135 75 167 0.0 0.0 0.00 0.48 0.01 95 1013.9
20260906092633 75 167 0.0 0.0 0.00 0.48 0.01 95 1013.9
20260906092405 75 167 0.0 0.0 0.00 0.48 0.01 95 1013.8
20260906091633 75 167 0.0 0.0 0.00 0.48 0.01 95 1013.7
20260906091629 75 167 0.0 0.0 0.00 0.48 0.01 95 1013.8
20260906090628 75 135 0.0 0.0 0.00 0.48 0.01 95 1013.7
20260906090128 75 119 0.0 0.0 0.00 0.48 0.01 95 1013.6
20260906085627 75 119 0.0 0.0 0.00 0.48 0.01 95 1013.6
20260906085126 75 119 0.0 0.0 0.00 0.48 0.01 95 1013.5
20260906084621 75 119 0.0 0.0 0.00 0.48 0.01 95 1013.5
20260906084119 75 119 0.0 0.0 0.00 0.48 0.01 95 1013.4
20260906083617 75 119 0.0 0.0 0.00 0.48 0.01 95 1013.6
20260906083115 75 119 0.0 0.0 0.00 0.48 0.01 95 1013.6
20260906082614 75 119 0.0 0.0 0.00 0.48 0.01 95 1013.6
20260906082340 75 119 0.0 0.0 0.00 0.48 0.01 95 1013.7
20260906081606 75 119 0.0 0.0 0.00 0.48 0.01 95 1013.7
20260906081104 75 119 0.0 0.0 0.00 0.48 0.01 95 1013.7
20260906080603 75 119 0.0 0.0 0.00 0.48 0.01 95 1013.8
20260906075601 75 119 0.0 2.0 0.00 0.48 0.01 95 1013.9
20260906075329 75 119 0.0 2.0 0.00 0.48 0.01 95 1013.8
20260906074831 75 119 0.0 2.0 0.00 0.48 0.01 95 1013.8
20260906074330 75 178 0.0 0.0 0.00 0.48 0.01 95 1013.7
20260906073557 75 178 0.0 2.0 0.00 0.48 0.01 95 1013.7
20260906073057 75 178 0.0 2.0 0.00 0.48 0.01 95 1013.7
20260906072551 75 178 0.0 0.0 0.00 0.48 0.01 95 1013.7
20260906072047 75 178 0.0 0.0 0.00 0.48 0.01 95 1013.8
20260906071547 75 178 0.0 0.0 0.00 0.48 0.01 95 1013.8
20260906071045 75 175 0.0 1.0 0.00 0.48 0.01 95 1013.8
20260906070544 75 175 0.0 1.0 0.00 0.48 0.01 95 1013.8
20260906070040 76 163 0.0 1.0 0.00 0.48 0.01 95 1013.7
20260906065540 75 163 0.0 2.0 0.00 0.48 0.01 95 1013.7
20260906065037 75 162 0.0 2.0 0.00 0.48 0.01 95 1013.7
20260906064539 75 128 0.0 0.0 0.00 0.48 0.01 95 1013.6
20260906064311 75 107 0.0 0.0 0.00 0.48 0.01 95 1013.6
20260906063540 75 107 0.0 0.0 0.01 0.48 0.01 95 1013.7
20260906063039 75 107 0.0 1.0 0.01 0.48 0.01 95 1013.6
20260906063035 75 107 0.0 1.0 0.01 0.48 0.01 95 1013.6
20260906062035 75 115 0.0 0.0 0.01 0.48 0.01 95 1013.7
20260906061806 75 118 0.0 0.0 0.01 0.48 0.01 95 1013.7
20260906061035 75 118 0.0 0.0 0.01 0.48 0.01 95 1013.7
20260906060806 76 118 0.0 0.0 0.01 0.48 0.01 95 1013.8
20260906060307 76 118 0.0 0.0 0.01 0.48 0.01 95 1013.7
20260906055529 76 118 0.0 0.0 0.01 0.48 0.01 95 1013.6
20260906055031 76 118 0.0 0.0 0.01 0.48 0.01 95 1013.6
20260906054530 76 118 0.0 0.0 0.01 0.48 0.01 95 1013.6
20260906054031 75 118 0.0 0.0 0.01 0.48 0.01 95 1013.6
20260906053529 76 118 0.0 0.0 0.00 0.47 0.00 95 1013.7
20260906053026 76 118 0.0 0.0 0.00 0.47 0.00 95 1013.7
20260906052526 76 118 0.0 0.0 0.00 0.47 0.00 95 1013.7
20260906052027 76 118 0.0 0.0 0.00 0.47 0.00 95 1013.7
20260906051526 76 118 0.0 0.0 0.00 0.47 0.00 95 1013.6
20260906051026 76 118 0.0 0.0 0.00 0.47 0.00 95 1013.5
20260906050526 76 118 0.0 0.0 0.00 0.47 0.00 95 1013.6
20260906050023 76 118 0.0 0.0 0.00 0.47 0.00 95 1013.6
20260906045523 76 118 0.0 0.0 0.00 0.47 0.47 94 1013.6
20260906045017 76 118 0.0 0.0 0.00 0.47 0.47 94 1013.6
20260906044518 76 118 0.0 2.0 0.00 0.47 0.47 95 1013.6
20260906044020 76 118 0.0 2.0 0.00 0.47 0.47 95 1013.5
20260906043518 76 118 1.0 2.0 0.00 0.47 0.47 95 1013.5
20260906043018 76 136 0.0 2.0 0.00 0.47 0.47 95 1013.4
20260906042519 76 126 1.0 2.0 0.00 0.47 0.47 95 1013.3
20260906042013 76 126 1.0 2.0 0.00 0.47 0.47 95 1013.2
20260906041514 76 117 1.0 2.0 0.00 0.47 0.47 95 1013.2
20260906041017 76 116 1.0 2.0 0.00 0.47 0.47 95 1013.1
20260906041012 76 118 1.0 2.0 0.00 0.47 0.47 95 1013.3
20260906040243 76 116 1.0 2.0 0.00 0.47 0.47 95 1013.1
20260906035513 76 105 0.0 2.0 0.00 0.47 0.47 95 1013.1
20260906035013 76 103 0.0 0.0 0.00 0.47 0.47 95 1013.0
20260906034514 76 103 0.0 0.0 0.00 0.47 0.47 94 1012.9
20260906034011 76 103 0.0 0.0 0.00 0.47 0.47 94 1012.9
20260906033740 76 103 0.0 0.0 0.00 0.47 0.47 94 1012.9
20260906033237 76 103 0.0 0.0 0.00 0.47 0.47 94 1012.9
20260906032507 76 103 0.0 0.0 0.00 0.47 0.47 94 1012.8
20260906032007 76 103 0.0 0.0 0.00 0.47 0.47 94 1012.8
20260906031507 76 103 0.0 0.0 0.00 0.47 0.47 94 1012.9
20260906031000 76 103 0.0 0.0 0.00 0.47 0.47 94 1012.9
20260906030500 76 103 0.0 0.0 0.00 0.47 0.47 94 1013.0
20260906030001 76 103 0.0 0.0 0.00 0.47 0.47 94 1013.1
20260906025458 76 103 0.0 0.0 0.00 0.47 0.47 94 1013.1
20260906024958 76 103 0.0 0.0 0.00 0.47 0.47 94 1013.2
20260906024730 76 103 0.0 0.0 0.00 0.47 0.47 94 1013.1
20260906023954 76 103 0.0 0.0 0.00 0.47 0.47 94 1013.2
20260906023450 76 103 0.0 0.0 0.00 0.47 0.47 94 1013.2
20260906022949 76 92 0.0 0.0 0.00 0.47 0.47 94 1013.4
20260906022447 77 102 0.0 0.0 0.00 0.47 0.47 94 1013.3
20260906021947 77 102 0.0 2.0 0.00 0.47 0.47 94 1013.4
20260906021443 77 102 0.0 2.0 0.00 0.47 0.47 94 1013.3
20260906020943 77 102 0.0 2.0 0.00 0.47 0.47 94 1013.3
20260906020442 77 102 0.0 2.0 0.00 0.47 0.47 94 1013.5
20260906020216 77 18 0.0 2.0 0.00 0.47 0.47 94 1013.4
20260906015441 77 18 1.0 2.0 0.00 0.47 0.47 94 1013.5
20260906014942 77 18 1.0 1.0 0.00 0.47 0.47 94 1013.4
20260906014434 77 17 0.0 1.0 0.00 0.47 0.47 94 1013.3
20260906013938 77 119 0.0 1.0 0.00 0.47 0.47 94 1013.4
20260906013933 77 87 0.0 0.0 0.00 0.47 0.47 94 1013.5
20260906012929 77 119 0.0 1.0 0.00 0.47 0.47 94 1013.4
20260906012430 77 143 0.0 1.0 0.00 0.47 0.47 94 1013.2
20260906011923 77 143 0.0 1.0 0.00 0.47 0.47 94 1013.1
20260906011420 77 143 0.0 0.0 0.00 0.47 0.47 94 1013.2
20260906010919 77 143 0.0 2.0 0.00 0.47 0.47 94 1013.1
20260906010417 77 143 0.0 2.0 0.00 0.47 0.47 94 1013.2
20260906005918 77 346 0.0 2.0 0.01 0.47 0.47 94 1013.1
20260906005411 77 346 0.0 2.0 0.01 0.47 0.47 94 1013.2
20260906004909 77 321 0.0 0.0 0.01 0.47 0.47 94 1013.3
20260906004407 77 321 0.0 0.0 0.03 0.47 0.47 94 1013.3
20260906004136 77 321 0.0 0.0 0.05 0.47 0.47 94 1013.3
20260906003406 77 321 0.0 2.0 0.06 0.47 0.47 94 1013.4
20260906002900 77 321 0.0 2.0 0.07 0.47 0.47 93 1013.4
20260906002400 77 321 1.0 3.0 0.07 0.47 0.47 93 1013.5
20260906001900 77 92 0.0 3.0 0.08 0.47 0.47 93 1013.7
20260906001400 77 18 0.0 2.0 0.10 0.47 0.47 93 1013.8
20260906000858 77 75 0.0 2.0 0.14 0.47 0.47 93 1013.7
20260906000629 77 76 1.0 2.0 0.18 0.47 0.47 93 1013.7
20260905235854 77 141 1.0 2.0 0.26 0.46 0.46 93 1013.7
20260905235354 77 118 1.0 2.0 0.41 0.46 0.46 93 1013.7
20260905234852 77 156 1.0 2.0 0.44 0.46 0.46 93 1013.8
20260905234352 77 155 1.0 2.0 0.43 0.44 0.44 92 1013.8
20260905233852 77 130 1.0 2.0 0.41 0.42 0.42 92 1013.8
20260905233624 77 119 2.0 3.0 0.40 0.41 0.41 92 1013.9
20260905232849 77 119 1.0 4.0 0.39 0.40 0.40 92 1013.9